Location: Platte
(43.3870°N, 98.8440°W)
Time: 17:33:17
(UTC-05:00)

ARGOS - Pass Details

Date: 21 May 2018
Orbit: 821 x 834 km, 98.6° (Epoch: 17 October)

Event Time Altitude Azimuth Distance (km) Brightness Sun altitude
Exits shadow 22:30:50 13° 173° (S) 2,208 4.9 -13.9°
Maximum altitude 22:35:39 73° 257° (WSW) 867 3.3 -14.5°
Drops below altitude 10° 22:41:04 10° 343° (NNW) 2,447 6.7 -15.1°
Sets 22:43:27 0° 345° (NNW) 3,387 7.5 -15.4°
